TimeAKDT,TemperatureF,Dew PointF,Humidity,Sea Level PressureIn,VisibilityMPH,Wind Direction,Wind SpeedMPH,Gust SpeedMPH,PrecipitationIn,Events,Conditions,WindDirDegrees,DateUTC
12:53 AM,37.0,21.0,52,30.37,10.0,NE,4.6,-,N/A,,Overcast,40,2013-04-21 08:53:00
1:53 AM,37.9,21.9,53,30.36,10.0,NE,6.9,-,N/A,,Overcast,50,2013-04-21 09:53:00
2:53 AM,37.9,21.9,53,30.35,10.0,NE,5.8,-,N/A,,Overcast,40,2013-04-21 10:53:00
3:53 AM,37.0,21.9,54,30.34,10.0,ENE,3.5,-,N/A,,Overcast,60,2013-04-21 11:53:00
4:53 AM,37.9,21.9,53,30.33,10.0,NNE,3.5,-,N/A,,Overcast,20,2013-04-21 12:53:00
5:53 AM,37.0,21.9,54,30.32,10.0,Calm,Calm,-,N/A,,Overcast,0,2013-04-21 13:53:00
6:53 AM,37.9,24.1,57,30.32,10.0,NE,9.2,-,N/A,,Overcast,50,2013-04-21 14:53:00
7:53 AM,37.9,24.1,57,30.31,10.0,North,6.9,-,N/A,,Overcast,10,2013-04-21 15:53:00
8:53 AM,37.9,26.1,62,30.30,10.0,North,10.4,-,N/A,,Overcast,360,2013-04-21 16:53:00
9:53 AM,37.9,26.1,62,30.30,10.0,NNE,9.2,-,N/A,,Overcast,20,2013-04-21 17:53:00
10:53 AM,37.0,28.9,73,30.30,6.0,NNE,8.1,-,0.00,Snow,Light Snow,20,2013-04-21 18:53:00
11:37 AM,35.6,28.4,75,30.29,3.0,North,10.4,-,0.00,Snow,Light Snow,10,2013-04-21 19:37:00
11:53 AM,36.0,30.0,79,30.29,3.0,NE,6.9,-,0.00,Snow,Light Snow,50,2013-04-21 19:53:00
11:57 AM,37.4,28.4,70,30.29,7.0,ENE,11.5,-,0.00,Snow,Light Snow,70,2013-04-21 19:57:00
12:53 PM,37.9,30.0,73,30.29,7.0,ENE,10.4,-,0.00,Snow,Light Snow,70,2013-04-21 20:53:00
1:53 PM,41.0,28.9,62,30.27,10.0,NNE,16.1,21.9,0.00,,Overcast,20,2013-04-21 21:53:00
2:53 PM,42.1,28.0,58,30.26,10.0,North,10.4,-,N/A,,Overcast,10,2013-04-21 22:53:00
3:53 PM,39.9,27.0,60,30.27,10.0,North,12.7,20.7,N/A,,Overcast,10,2013-04-21 23:53:00
4:53 PM,37.9,30.0,73,30.28,9.0,NNE,16.1,20.7,0.00,Rain,Light Rain,20,2013-04-22 00:53:00
5:01 PM,37.4,30.2,75,30.27,6.0,NNE,13.8,-,0.00,Rain,Light Rain,20,2013-04-22 01:01:00
5:53 PM,37.0,30.0,76,30.27,4.0,NNE,16.1,-,0.00,Rain,Light Rain,20,2013-04-22 01:53:00
6:53 PM,37.0,30.0,76,30.29,10.0,NNE,9.2,-,0.00,Rain,Light Rain,30,2013-04-22 02:53:00
7:00 PM,37.4,30.2,75,30.29,10.0,NE,6.9,-,0.00,Rain,Light Rain,50,2013-04-22 03:00:00
7:09 PM,37.4,30.2,75,30.29,7.0,NE,6.9,-,0.00,Rain,Light Rain,40,2013-04-22 03:09:00
7:53 PM,36.0,32.0,86,30.31,7.0,ESE,6.9,-,0.00,Rain,Light Rain,110,2013-04-22 03:53:00
8:00 PM,37.4,32.0,81,30.30,10.0,ESE,5.8,-,0.01,Rain,Light Rain,110,2013-04-22 04:00:00
8:11 PM,37.4,32.0,81,30.30,10.0,East,4.6,-,0.01,Rain,Light Rain,80,2013-04-22 04:11:00
8:53 PM,37.0,30.9,79,30.32,10.0,Calm,Calm,-,0.01,,Overcast,0,2013-04-22 04:53:00
9:06 PM,35.6,30.2,81,30.32,10.0,Calm,Calm,-,N/A,,Overcast,0,2013-04-22 05:06:00
9:21 PM,35.6,32.0,87,30.33,10.0,West,5.8,-,N/A,,Overcast,260,2013-04-22 05:21:00
9:46 PM,35.6,30.2,81,30.34,10.0,West,3.5,-,N/A,,Mostly Cloudy,280,2013-04-22 05:46:00
9:53 PM,35.1,30.9,85,30.35,10.0,West,3.5,-,N/A,,Mostly Cloudy,280,2013-04-22 05:53:00
10:53 PM,34.0,28.9,82,30.37,10.0,North,3.5,-,N/A,,Clear,10,2013-04-22 06:53:00
11:53 PM,30.9,28.0,89,30.38,10.0,Calm,Calm,-,N/A,,Clear,0,2013-04-22 07:53:00